STARLINK-34244, 65351

Orbit data source: Space-Track

STARLINK-34244, 65351 is a payload satellite owned by SpaceX/Seattle (US) in LEO that was launched on Thu, 28 Aug 2025 UTC via an FALCON 9 launch vehicle from the Air Force Eastern Test Range (AFETR). Payload-class satellites include a variety of spacecraft equipped with specific instruments for various scientific and technological missions. These include communications satellites like Starlink; space stations such as the ISS; scientific satellites like the Hubble; Earth observation satellites from companies like Planet Labs, Umbra, and HawkEye 360; GPS; miniature CubeSats for education and research; and military/defense satellites.

Loading next visibility...
Identifier
65351, 2025-190A
Orbit
LEO
Country
Flag of USUS
Related business
Manufacturer
SpaceX/Seattle
Mission
Operational Commercial Communications
Bus & Motor
STARLINK V2MO, Unknown motor
Mass
575 kg wet, ~530 kg dry
Launch date (UTC)
2025-08-28 (10 months ago)
Launch vehicle
FALCON 9
Launch site
Air Force Eastern Test Range (AFETR)
Object type
Payload
Rocket body
Debris
Shape & HBR
Box + 2 Pan, 17.7 m
Radar Cross Section
36.964 m², Large (>1 m²)

Expand to show TLE details & history
Last TLE update: 11 hours ago

TLE from 11 hours ago
0 STARLINK-34244
1 65351U 25190A   26171.37421657  .00022397  00000-0  67182-3 0  9999
2 65351  53.1594  50.0424 0002189  88.6664 271.4589 15.34409158 45490
Epoch: 2026-06-20T08:58Z
TLE epoch observation values (Epoch: 2026-06-20T08:58:52.311Z)
Latitude
-0.00006°
Longitude
6.73464°
Altitude
463.54 km
Speed
7.636 km/s
True Right ascension
03h 20m 10s
True Declination
0° 00' 00"
Sunlit
Object was in daylight at epoch
Visualization orbit readout
Latitude
Unknown
Longitude
Unknown
Altitude
Unknown
Speed
Unknown
Apparent Right ascension
Unknown
Apparent Declination
Unknown
Sunlit
N/A
Visualization observer readout
Local Sidereal Time
07:21:55
Azimuth
Unknown
Elevation
Unknown
Doppler factor
Unknown
Orbital elements
Apogee altitude
464.431 km
Perigee altitude
461.435 km
Semi-major axis
6,841.07 km
Eccentricity
0.00022
Inclination
53.1594°
RAAN
50.0424°
Arg. of periapsis
88.6664°
True anomaly
271.43382°
Mean anomaly
271.4589°
Eccentric anomaly
271.44636°
Mean motion
3.83581 °/min
Orbital period
93.85 mins
BSTAR
0.00067182
Loading maneuver chart data...
Computing Atmospheric mass density...
Loading historical data...
Loading historical data...
Loading historical data...
Loading historical data...
Loading historical data...
Loading historical data...
Loading historical data...

Documentation

Showing up to 5 results
|